Location: Newark
(7.0858°N, 171.3717°E)
Time: 02:49:54
(UTC+00:00)

Transit 4A - Pass Details

Date: 05 December 2020
Orbit: 864 x 980 km, 66.8° (Epoch: 20 January)

Event Time Altitude Azimuth Distance (km) Brightness Sun altitude
Rises 17:05:41 0° 186° (S) 3,542 11.1 -21.1°
Reaches altitude 10° 17:08:16 10° 180° (S) 2,617 10.5 -20.5°
Maximum altitude 17:14:03 45° 108° (ESE) 1,264 9.1 -19.2°
Drops below altitude 10° 17:19:59 10° 38° (NE) 2,687 10.5 -17.8°
Sets 17:22:39 0° 32° (NNE) 3,645 11.1 -17.2°
